[[{"header":{"parameterUnit":"m.s-1","parameterCategory":2,"la1":30.2991,"la2":30.254,"lo1":-89.0895,"lo2":-89.0444,"dy":0.0017,"dx":0.0017,"nx":28,"ny":28,"refTime":"2024-05-23T03:00:00:Z","depth":"0","parameterNumber":2,"parameterNumberName":"U-component_of_CURRENTS"},"data":[0,0,0,0,0,0,0,0,0,0,0,0,0,0,0,0,0,0,0,0,0,0,0,0,0,0,0,0,0,0,0,0,0,0,0,0,0,0,0,0,0,0,0,0,0,0,0,0,0,0,0,0,0,0,0,0,0,0,0.2044,0.2044,0,0.2034,0.2034,0.2033,0.2005,0.2005,0.2004,0.2004,0.198,0.198,0.198,0,0,0,0,0,0,0,0,0,0,0,0,0,0.2061,0.206,0.2044,0.2044,0.2044,0.2034,0.2034,0.2033,0.2005,0.2005,0.2004,0.2004,0.198,0.198,0.1979,0,0,0,0,0,0,0,0,0,0,0,0,0,0.2051,0.206,0.2044,0.203,0.2029,0.2034,0.2034,0.2033,0.2005,0.2005,0.2004,0.2003,0.198,0.198,0.1979,0.1991,0,0,0.1978,0.1978,0,0,0,0,0,0,0,0,0.2051,0.205,0.2032,0.2031,0.203,0.2022,0.2031,0.2019,0.2005,0.2012,0.2004,0.2003,0.1994,0.1993,0.199,0.199,0.1989,0.1978,0.1978,0.1978,0.1978,0,0,0,0,0,0,0,0.2052,0.205,0.2038,0.2032,0.2031,0.2032,0.203,0.2029,0.2005,0.2012,0.201,0.2012,0.1993,0.199,0.1989,0.1988,0.1978,0.1978,0.1978,0.1978,0.203,0.2031,0,0,0,0,0,0,0.2056,0.2051,0.2038,0.2038,0.2041,0.2033,0.203,0.2023,0.2006,0.2003,0.2013,0.2011,0.1991,0.199,0.1988,0.2017,0.1978,0.1978,0.1978,0.2028,0.203,0.2032,0,0,0,0,0,0,0.2057,0.2055,0.2039,0.2046,0.2044,0.2033,0.2026,0.2024,0.202,0.2007,0.2003,0.2012,0.1991,0.1989,0.1997,0.2015,0.1978,0.1977,0.2026,0.2029,0.2031,0.2063,0,0,0,0,0,0,0.2057,0.2055,0.2053,0.2046,0.2044,0.2042,0.2027,0.2024,0.2023,0.202,0.2005,0.2002,0.199,0.1998,0.1997,0.2014,0.1977,0.2024,0.2027,0.203,0.206,0.2066,0.2072,0,0,0,0,0,0.2058,0.2054,0.2053,0.2052,0.2041,0.2042,0.2041,0.203,0.2024,0.2023,0.2021,0.2003,0.2016,0.1999,0.1997,0.2014,0.2023,0.2027,0.203,0.2057,0.2065,0.2071,0,0,0,0,0,0,0.2057,0.2051,0.2049,0.2043,0.2045,0.2038,0.2038,0.2034,0.2032,0.2031,0.2017,0.2014,0.2034,0.2024,0.2005,0.2042,0.2019,0.2023,0.2041,0.2048,0.2053,0.2072,0.1977,0,0,0,0,0,0.2059,0.2055,0.2054,0.205,0.2052,0.2048,0.2047,0.2043,0.2041,0.2039,0.2032,0.2034,0.2049,0.2046,0.2055,0.2066,0.207,0.208,0.2086,0.2091,0.2108,0.2143,0.2153,0.2044,0.2044,0.2043,0,0,0.2057,0.2056,0.2052,0.2051,0.205,0.2057,0.2045,0.2047,0.2057,0.2038,0.2047,0.2055,0.206,0.208,0.2087,0.2069,0.2121,0.2095,0.2099,0.2114,0.2148,0.2159,0.2168,0.2046,0.2046,0.2045,0,0,0.2055,0.2052,0.205,0.2056,0.2061,0.2064,0.2067,0.2066,0.2068,0.2082,0.2083,0.2108,0.2107,0.2125,0.2133,0.2178,0.2158,0.2175,0.2207,0.224,0.225,0.2258,0.2257,0.2265,0.2168,0.2168,0.2168,0,0.2056,0.2051,0.2051,0.2057,0.2063,0.2069,0.2075,0.2085,0.2088,0.2103,0.209,0.2135,0.2137,0.2181,0.2199,0.2192,0.2193,0.2174,0.2247,0.2256,0.2263,0.2261,0.2269,0.217,0.217,0.217,0.217,0,0.2053,0.2055,0.2057,0.2066,0.2075,0.2082,0.2099,0.2115,0.2122,0.2135,0.2179,0.2193,0.222,0.2227,0.2225,0.2286,0.2261,0.2255,0.2225,0.2276,0.227,0.2278,0.2173,0.2172,0.2172,0.2171,0,0,0.2035,0.2051,0.2051,0.2057,0.2081,0.2085,0.2119,0.2148,0.2174,0.2194,0.2231,0.2275,0.2288,0.2301,0.2306,0.2337,0.2387,0.2319,0.232,0.2311,0.2437,0.2333,0.2331,0.2388,0.2391,0.2392,0.2402,0,0.2031,0.2038,0.2053,0.2067,0.2071,0.2101,0.2131,0.2165,0.2195,0.2233,0.2275,0.2311,0.2312,0.2328,0.2366,0.2391,0.2414,0.2384,0.2397,0.2397,0.2293,0.234,0.2183,0.2172,0.2409,0.2411,0.2412,0,0.2019,0.2027,0.2035,0.2065,0.2071,0.2088,0.214,0.2169,0.2239,0.2263,0.2319,0.2347,0.2413,0.2399,0.247,0.2447,0.2452,0.2463,0.2463,0.2366,0.2309,0.2165,0.2177,0.2099,0.2424,0.2423,0.2422,0,0.199,0.2013,0.2017,0.2026,0.2065,0.2085,0.2114,0.2179,0.2212,0.2288,0.232,0.2394,0.2425,0.2471,0.2494,0.2488,0.2552,0.254,0.2449,0.244,0.2311,0.2287,0.2245,0.2592,0.2592,0.2592,0.2592,0,0.1973,0.1976,0.2004,0.2007,0.2028,0.2064,0.2104,0.2149,0.2219,0.2259,0.2332,0.2371,0.2448,0.2489,0.251,0.2496,0.2563,0.2469,0.2447,0.2314,0.2291,0.222,0.2199,0.2593,0.2593,0.2592,0.2592,0,0.1937,0.1954,0.1962,0.1999,0.2013,0.2029,0.209,0.2121,0.2191,0.2248,0.2274,0.2365,0.241,0.246,0.252,0.2493,0.2406,0.2479,0.2297,0.2255,0.2078,0.2065,0.1923,0.1879,0.2383,0.238,0.2378,0,0.1917,0.1916,0.1947,0.1956,0.1972,0.2004,0.2027,0.2098,0.2133,0.2234,0.2254,0.2323,0.2346,0.2382,0.2355,0.235,0.2307,0.2193,0.2161,0.2054,0.2026,0.1942,0.1912,0.1997,0.1992,0.1988,0.1984,0,0.1885,0.1897,0.1906,0.1922,0.1939,0.1961,0.2,0.2024,0.2103,0.2142,0.2191,0.222,0.2232,0.2151,0.2131,0.2113,0.2036,0.2107,0.2057,0.1773,0.1621,0.157,0.1991,0.1948,0.1952,0.1955,0.1957,0.1958,0.1863,0.1861,0.1874,0.1879,0.1898,0.1908,0.1898,0.1938,0.1967,0.1983,0.2075,0.2038,0.1976,0.1918,0.189,0.1711,0.1776,0.1629,0.1637,0.1575,0.1479,0.1801,0.1697,0.1699,0.1701,0.1702,0.1704,0,0.1823,0.1822,0.1829,0.1827,0.1811,0.1844,0.1862,0.1831,0.1811,0.1827,0.1833,0.172,0.1601,0.1542,0.1371,0.1262,0.1211,0.121,0.108,0.1093,0.1425,0.1356,0.1096,0.1097,0.1097,0.1097,0.1097,0.1097,0.1805,0.1784,0.1777,0.1731,0.1725,0.1678,0.1664,0.1629,0.1617,0.1506,0.1408,0.1393,0.1318,0.1114,0.0948,0.0918,0.0851,0.0723,0.0816,0.1062,0.1103,0.1141,0.1072,0.0757,0.0757,0.0394,0.0391,0.0388]},{"header":{"parameterUnit":"m.s-1","parameterCategory":2,"la1":30.2991,"la2":30.254,"lo1":-89.0895,"lo2":-89.0444,"dy":0.0017,"dx":0.0017,"nx":28,"ny":28,"refTime":"2024-05-23T03:00:00:Z","depth":"0","parameterNumber":3,"parameterNumberName":"V-component_of_CURRENTS"},"data":[0,0,0,0,0,0,0,0,0,0,0,0,0,0,0,0,0,0,0,0,0,0,0,0,0,0,0,0,0,0,0,0,0,0,0,0,0,0,0,0,0,0,0,0,0,0,0,0,0,0,0,0,0,0,0,0,0,0,0.0339,0.0339,0,0.0341,0.0341,0.0341,0.0334,0.0334,0.0333,0.0333,0.0317,0.0317,0.0317,0,0,0,0,0,0,0,0,0,0,0,0,0,0.0314,0.0315,0.0339,0.0339,0.0339,0.0341,0.0341,0.0341,0.0334,0.0334,0.0333,0.0333,0.0317,0.0317,0.0317,0,0,0,0,0,0,0,0,0,0,0,0,0,0.0321,0.0315,0.0339,0.0336,0.0336,0.0341,0.0341,0.0341,0.0334,0.0334,0.0333,0.0333,0.0318,0.0317,0.0317,0.032,0,0,0.0316,0.0315,0,0,0,0,0,0,0,0,0.0321,0.0322,0.0337,0.0337,0.0336,0.0337,0.0326,0.0333,0.0334,0.0334,0.0333,0.0333,0.0323,0.0322,0.0323,0.0319,0.0318,0.0316,0.0315,0.0315,0.0315,0,0,0,0,0,0,0,0.032,0.0322,0.034,0.0337,0.0337,0.0329,0.033,0.0328,0.0329,0.0334,0.0334,0.0335,0.0323,0.0323,0.0322,0.0318,0.0316,0.0315,0.0315,0.0315,0.0317,0.0318,0,0,0,0,0,0,0.0322,0.0321,0.034,0.034,0.0328,0.033,0.0331,0.0337,0.033,0.0329,0.0335,0.0334,0.0324,0.0323,0.0322,0.0339,0.0315,0.0315,0.0315,0.0317,0.0317,0.0318,0,0,0,0,0,0,0.0322,0.0324,0.0339,0.033,0.0332,0.0331,0.0338,0.0337,0.0339,0.0331,0.0329,0.0337,0.0324,0.0322,0.0326,0.0338,0.0315,0.0314,0.0317,0.0317,0.0318,0.0365,0,0,0,0,0,0,0.0321,0.0324,0.0328,0.0331,0.0333,0.0347,0.0338,0.0337,0.034,0.0339,0.0332,0.033,0.0323,0.0326,0.0325,0.0337,0.0314,0.0316,0.0317,0.0317,0.0363,0.0367,0.037,0,0,0,0,0,0.032,0.0329,0.0329,0.0331,0.0339,0.0348,0.0348,0.0346,0.034,0.0345,0.0342,0.033,0.0329,0.0327,0.0325,0.0337,0.0316,0.0317,0.0317,0.0361,0.0366,0.037,0,0,0,0,0,0,0.0319,0.0329,0.0329,0.034,0.0345,0.0347,0.0351,0.0348,0.0349,0.0348,0.0338,0.0336,0.0344,0.0332,0.0329,0.0338,0.0319,0.032,0.0353,0.0357,0.0361,0.0377,0.0314,0,0,0,0,0,0.0322,0.0332,0.0338,0.0347,0.0351,0.0351,0.0353,0.0353,0.0354,0.0354,0.0351,0.0345,0.0345,0.0345,0.0342,0.0348,0.0334,0.0352,0.0356,0.0359,0.037,0.0368,0.0372,0.032,0.032,0.032,0,0,0.0323,0.033,0.0336,0.0348,0.0351,0.0366,0.0352,0.0359,0.0372,0.0352,0.0367,0.0359,0.035,0.0359,0.0361,0.0351,0.0362,0.036,0.0363,0.0372,0.0369,0.0374,0.0379,0.032,0.032,0.032,0,0,0.0336,0.0339,0.0354,0.0362,0.0371,0.0374,0.0378,0.0383,0.0386,0.0397,0.0388,0.039,0.0387,0.0388,0.0387,0.0407,0.0383,0.04,0.0432,0.043,0.0434,0.0438,0.0411,0.0412,0.0401,0.0401,0.0401,0,0.0337,0.036,0.0359,0.0376,0.0389,0.0381,0.0403,0.0406,0.0411,0.0423,0.0407,0.0417,0.0404,0.0425,0.043,0.0418,0.0403,0.0418,0.0436,0.044,0.0443,0.0414,0.0415,0.0403,0.0403,0.0402,0.0402,0,0.0364,0.0382,0.0392,0.0416,0.0427,0.0443,0.045,0.0461,0.0461,0.0466,0.0484,0.0469,0.0479,0.0469,0.0455,0.0475,0.0451,0.0443,0.0428,0.0451,0.0419,0.0419,0.0406,0.0406,0.0405,0.0404,0,0,0.0372,0.0406,0.041,0.0433,0.0451,0.0467,0.049,0.0517,0.0543,0.0536,0.057,0.0559,0.0552,0.0549,0.0531,0.0523,0.0521,0.0494,0.0493,0.0473,0.0498,0.0499,0.0498,0.0518,0.0518,0.0519,0.046,0,0.0397,0.044,0.045,0.0496,0.0522,0.0529,0.0558,0.0577,0.0588,0.0616,0.0603,0.0622,0.0582,0.0589,0.0577,0.0545,0.0526,0.0536,0.0474,0.0472,0.0476,0.0501,0.0545,0.05,0.046,0.046,0.046,0,0.0426,0.0453,0.0501,0.0551,0.0564,0.0588,0.064,0.0665,0.0694,0.0703,0.0715,0.0704,0.0702,0.066,0.0613,0.0622,0.0565,0.0526,0.0523,0.0513,0.0474,0.0473,0.0501,0.0491,0.046,0.046,0.046,0,0.0444,0.0493,0.0535,0.055,0.06,0.0627,0.0656,0.0693,0.073,0.0761,0.079,0.0777,0.078,0.0721,0.0641,0.0629,0.0579,0.0552,0.0492,0.049,0.0511,0.051,0.0532,0.0513,0.0513,0.0513,0.0513,0,0.0473,0.0508,0.0548,0.0572,0.0634,0.0656,0.0723,0.075,0.0798,0.0857,0.0838,0.0876,0.0797,0.076,0.067,0.0589,0.06,0.0507,0.0487,0.0526,0.0527,0.0506,0.0491,0.0511,0.0511,0.0512,0.0512,0,0.049,0.0514,0.0568,0.0623,0.0646,0.069,0.0769,0.0818,0.0855,0.0931,0.0947,0.0952,0.0912,0.0817,0.072,0.0636,0.0549,0.051,0.055,0.0536,0.0479,0.0464,0.0452,0.0453,0.0442,0.0442,0.0442,0,0.0505,0.0533,0.0602,0.0639,0.0666,0.0733,0.0786,0.0843,0.0901,0.0984,0.1027,0.1014,0.1024,0.0881,0.0745,0.0599,0.0554,0.0523,0.0514,0.0497,0.0465,0.0453,0.0455,0.0543,0.0544,0.0545,0.0545,0,0.0531,0.0552,0.0595,0.0671,0.0729,0.0803,0.0882,0.0938,0.1016,0.1086,0.1162,0.1176,0.1068,0.0971,0.0777,0.0668,0.0551,0.053,0.0515,0.0558,0.0546,0.0531,0.0537,0.055,0.055,0.055,0.0549,0.0549,0.0548,0.058,0.0635,0.0707,0.0776,0.0863,0.0928,0.102,0.1125,0.1233,0.1247,0.1286,0.1161,0.0926,0.0796,0.0607,0.0585,0.0545,0.0527,0.0515,0.0539,0.0548,0.0541,0.0541,0.054,0.054,0.0539,0,0.0565,0.0604,0.067,0.0756,0.0827,0.0866,0.0986,0.106,0.1185,0.1283,0.1351,0.1323,0.1184,0.1,0.0761,0.0641,0.059,0.0567,0.0575,0.0573,0.0589,0.0618,0.0626,0.0626,0.0626,0.0626,0.0626,0.0626,0.0576,0.0629,0.0662,0.0775,0.084,0.0941,0.1008,0.1128,0.1223,0.1336,0.1371,0.1383,0.1288,0.095,0.0741,0.0668,0.0608,0.0576,0.0534,0.056,0.0557,0.0554,0.058,0.058,0.058,0.0554,0.0554,0.0554]}],[{"header":{"parameterUnit":"m.s-1","parameterCategory":2,"la1":30.2991,"la2":30.254,"lo1":-89.0895,"lo2":-89.0444,"dy":0.0017,"dx":0.0017,"nx":28,"ny":28,"refTime":"2024-05-23T03:00:00:Z","depth":"2","parameterNumber":2,"parameterNumberName":"U-component_of_CURRENTS"},"data":[0,0,0,0,0,0,0,0,0,0,0,0,0,0,0,0,0,0,0,0,0,0,0,0,0,0,0,0,0,0,0,0,0,0,0,0,0,0,0,0,0,0,0,0,0,0,0,0,0,0,0,0,0,0,0,0,0,0,0.1772,0.1772,0,0.1768,0.1767,0.1767,0.1755,0.1755,0.1755,0.1755,0.175,0.175,0.175,0,0,0,0,0,0,0,0,0,0,0,0,0,0.1789,0.1789,0.1772,0.1772,0.1772,0.1768,0.1767,0.1767,0.1755,0.1755,0.1755,0.1755,0.175,0.175,0.175,0,0,0,0,0,0,0,0,0,0,0,0,0,0.1782,0.1789,0.1772,0.1767,0.1766,0.1768,0.1767,0.1767,0.1755,0.1755,0.1755,0.1755,0.175,0.175,0.175,0.1754,0,0,0.175,0.175,0,0,0,0,0,0,0,0,0.1782,0.1781,0.1767,0.1767,0.1767,0.1763,0.1772,0.1763,0.1755,0.1758,0.1755,0.1754,0.1755,0.1755,0.1752,0.1754,0.1753,0.175,0.175,0.175,0.175,0,0,0,0,0,0,0,0.1783,0.1781,0.1769,0.1768,0.1767,0.1771,0.1769,0.177,0.1757,0.1758,0.1757,0.1759,0.1755,0.1752,0.1752,0.1753,0.175,0.175,0.175,0.175,0.1801,0.1803,0,0,0,0,0,0,0.1785,0.1782,0.1769,0.1769,0.1775,0.1771,0.1769,0.1763,0.1757,0.1756,0.1759,0.1758,0.1752,0.1752,0.1752,0.1786,0.175,0.175,0.175,0.18,0.1802,0.1803,0,0,0,0,0,0,0.1785,0.1784,0.177,0.1777,0.1775,0.1771,0.1764,0.1763,0.1767,0.1758,0.1757,0.1765,0.1752,0.1752,0.1764,0.1785,0.175,0.175,0.1798,0.1801,0.1802,0.1836,0,0,0,0,0,0,0.1786,0.1784,0.1784,0.1777,0.1775,0.1773,0.1765,0.1763,0.1769,0.1768,0.1763,0.1762,0.1752,0.1765,0.1765,0.1784,0.175,0.1797,0.1799,0.1802,0.1833,0.1839,0.1844,0,0,0,0,0,0.1786,0.1784,0.1784,0.1783,0.1775,0.1774,0.1773,0.1769,0.177,0.1772,0.1775,0.1762,0.1781,0.1766,0.1765,0.1785,0.1795,0.1799,0.1802,0.1831,0.1838,0.1844,0,0,0,0,0,0,0.1791,0.1782,0.1782,0.1778,0.1779,0.1772,0.1776,0.1775,0.1779,0.1783,0.1774,0.1773,0.1796,0.1788,0.1771,0.1811,0.1789,0.1792,0.1811,0.1818,0.1823,0.1838,0.175,0,0,0,0,0,0.1793,0.179,0.1786,0.1785,0.1786,0.1785,0.1786,0.1786,0.1787,0.1788,0.1787,0.1794,0.1808,0.181,0.1818,0.1833,0.1836,0.1849,0.1854,0.1859,0.1873,0.1902,0.1912,0.1813,0.1813,0.1813,0,0,0.1795,0.1791,0.1789,0.1786,0.1787,0.1792,0.1785,0.1791,0.1801,0.1788,0.1803,0.1813,0.1819,0.184,0.1849,0.1834,0.1887,0.1863,0.1866,0.1878,0.1907,0.1916,0.1924,0.1815,0.1815,0.1815,0,0,0.1796,0.1794,0.1793,0.1797,0.1803,0.1804,0.1808,0.181,0.1817,0.1834,0.1837,0.1862,0.1868,0.1882,0.189,0.1932,0.1919,0.1933,0.1965,0.1994,0.2002,0.2009,0.2012,0.202,0.193,0.193,0.193,0,0.1801,0.1794,0.1794,0.1799,0.1805,0.1811,0.1816,0.1827,0.1835,0.185,0.1844,0.1889,0.1893,0.1931,0.1951,0.1944,0.1949,0.1936,0.2,0.2007,0.2014,0.2016,0.2024,0.1932,0.1932,0.1932,0.1931,0,0.1799,0.1801,0.1804,0.181,0.1818,0.1825,0.1839,0.1856,0.1869,0.1883,0.1927,0.194,0.1967,0.1976,0.1977,0.2032,0.2015,0.2006,0.198,0.2026,0.2025,0.2032,0.1935,0.1934,0.1934,0.1933,0,0,0.1789,0.1799,0.1801,0.1805,0.1825,0.1828,0.186,0.1884,0.191,0.1935,0.197,0.2013,0.2028,0.2041,0.2048,0.2077,0.2127,0.2066,0.2067,0.2064,0.2176,0.2084,0.2083,0.2128,0.213,0.2131,0.215,0,0.1788,0.1792,0.1802,0.1814,0.1817,0.1843,0.1869,0.1901,0.1931,0.1968,0.2008,0.2045,0.2049,0.2069,0.2103,0.2128,0.2151,0.2122,0.2137,0.2138,0.2047,0.209,0.1894,0.1887,0.2157,0.2158,0.2159,0,0.1778,0.1783,0.179,0.1812,0.1818,0.1834,0.188,0.1907,0.197,0.1997,0.205,0.2078,0.2141,0.213,0.2198,0.2179,0.2187,0.2198,0.2199,0.211,0.2061,0.1889,0.1891,0.2171,0.217,0.2169,0.2168,0,0.1755,0.1772,0.1775,0.1783,0.1813,0.1834,0.186,0.1919,0.1951,0.2023,0.2056,0.2123,0.2159,0.2199,0.2228,0.2221,0.2286,0.227,0.2191,0.2183,0.2018,0.1993,0.2315,0.2315,0.2315,0.2315,0.2315,0,0.174,0.1743,0.1766,0.1767,0.1788,0.182,0.1859,0.1899,0.1965,0.2002,0.2071,0.2107,0.2182,0.2223,0.2243,0.2237,0.2295,0.2209,0.219,0.2022,0.1998,0.2247,0.2239,0.2315,0.2315,0.2315,0.2315,0,0.171,0.1723,0.1728,0.176,0.1774,0.1792,0.1853,0.1879,0.1949,0.2002,0.2029,0.2113,0.2159,0.2209,0.2265,0.2239,0.2252,0.2229,0.2014,0.197,0.2125,0.2119,0.2148,0.2146,0.2143,0.2141,0.2139,0,0.1693,0.1691,0.1718,0.1724,0.1739,0.1773,0.1795,0.1864,0.1892,0.1991,0.2006,0.2081,0.2095,0.2137,0.2114,0.2111,0.2193,0.1923,0.1877,0.2133,0.2113,0.211,0.2107,0.1667,0.1662,0.1657,0.1654,0,0.1663,0.1673,0.1679,0.1691,0.1709,0.1728,0.1765,0.1783,0.1857,0.1892,0.193,0.1954,0.198,0.1879,0.1874,0.1853,0.1909,0.183,0.2165,0.1737,0.168,0.166,0.1673,0.1614,0.1618,0.1621,0.1623,0.1625,0.1643,0.1639,0.1646,0.1649,0.1667,0.1669,0.1657,0.1685,0.1703,0.1715,0.1797,0.1753,0.1751,0.1636,0.1575,0.1526,0.1672,0.159,0.1604,0.1622,0.1561,0.1502,0.139,0.1393,0.1395,0.1397,0.1399,0,0.1605,0.1601,0.1602,0.1592,0.1573,0.1613,0.1617,0.1573,0.1537,0.156,0.1559,0.1404,0.1306,0.1316,0.1164,0.1147,0.1144,0.1104,0.1082,0.1121,0.1156,0.1072,0.0771,0.077,0.0768,0.0767,0,0,0.1587,0.1561,0.1548,0.1493,0.149,0.1441,0.1424,0.1367,0.1347,0.127,0.1214,0.1279,0.1282,0.1031,0.0976,0.0847,0.0989,0.0808,0.1309,0.1324,0.1358,0.1427,0.134,0,0,0,0,0]},{"header":{"parameterUnit":"m.s-1","parameterCategory":2,"la1":30.2991,"la2":30.254,"lo1":-89.0895,"lo2":-89.0444,"dy":0.0017,"dx":0.0017,"nx":28,"ny":28,"refTime":"2024-05-23T03:00:00:Z","depth":"2","parameterNumber":3,"parameterNumberName":"V-component_of_CURRENTS"},"data":[0,0,0,0,0,0,0,0,0,0,0,0,0,0,0,0,0,0,0,0,0,0,0,0,0,0,0,0,0,0,0,0,0,0,0,0,0,0,0,0,0,0,0,0,0,0,0,0,0,0,0,0,0,0,0,0,0,0,0.0138,0.0138,0,0.0136,0.0136,0.0136,0.0131,0.0131,0.013,0.013,0.0118,0.0118,0.0118,0,0,0,0,0,0,0,0,0,0,0,0,0,0.0124,0.0124,0.0138,0.0138,0.0138,0.0136,0.0136,0.0135,0.0131,0.0131,0.013,0.013,0.0118,0.0118,0.0118,0,0,0,0,0,0,0,0,0,0,0,0,0,0.0126,0.0124,0.0138,0.0136,0.0135,0.0136,0.0136,0.0135,0.0131,0.0131,0.013,0.013,0.0118,0.0118,0.0118,0.0118,0,0,0.0117,0.0116,0,0,0,0,0,0,0,0,0.0126,0.0127,0.0136,0.0136,0.0136,0.0134,0.0126,0.0129,0.0131,0.0132,0.013,0.013,0.0123,0.0122,0.0122,0.0117,0.0116,0.0116,0.0116,0.0116,0.0116,0,0,0,0,0,0,0,0.0126,0.0127,0.0137,0.0136,0.0136,0.0129,0.013,0.0127,0.0128,0.0132,0.0132,0.0132,0.0122,0.0122,0.0121,0.0116,0.0116,0.0116,0.0116,0.0116,0.0118,0.0118,0,0,0,0,0,0,0.0128,0.0127,0.0137,0.0137,0.0131,0.013,0.013,0.0134,0.0128,0.0127,0.0132,0.0132,0.0123,0.0122,0.0121,0.0138,0.0116,0.0116,0.0116,0.0118,0.0118,0.0119,0,0,0,0,0,0,0.0128,0.0129,0.0137,0.0132,0.0132,0.013,0.0135,0.0134,0.0136,0.0128,0.0127,0.0135,0.0122,0.0121,0.0125,0.0137,0.0116,0.0115,0.0118,0.0118,0.0118,0.0161,0,0,0,0,0,0,0.0127,0.0129,0.0133,0.0132,0.0133,0.0143,0.0135,0.0134,0.0137,0.0136,0.013,0.0129,0.0122,0.0126,0.0125,0.0136,0.0115,0.0117,0.0118,0.0118,0.0159,0.0162,0.0166,0,0,0,0,0,0.0127,0.0134,0.0133,0.0135,0.0138,0.0144,0.0144,0.0141,0.0137,0.0142,0.0139,0.0129,0.0128,0.0126,0.0124,0.0136,0.0117,0.0118,0.0118,0.0157,0.0162,0.0165,0,0,0,0,0,0,0.0129,0.0134,0.0133,0.0142,0.0145,0.0143,0.0147,0.0144,0.0145,0.0144,0.0135,0.0134,0.0141,0.0131,0.0128,0.0137,0.012,0.012,0.015,0.0154,0.0157,0.017,0.0115,0,0,0,0,0,0.0132,0.014,0.0142,0.0149,0.0151,0.015,0.0151,0.015,0.015,0.015,0.0148,0.0143,0.0142,0.0143,0.0139,0.0145,0.0134,0.015,0.0153,0.0156,0.0165,0.016,0.0164,0.0121,0.0121,0.0121,0,0,0.0135,0.0139,0.0142,0.015,0.0152,0.0164,0.0151,0.0156,0.0167,0.0149,0.0163,0.0155,0.0146,0.0155,0.0156,0.0148,0.0161,0.0157,0.016,0.0167,0.0161,0.0165,0.0169,0.0121,0.0121,0.0121,0,0,0.0147,0.0148,0.016,0.0165,0.0171,0.0173,0.0176,0.0179,0.0181,0.0191,0.0181,0.0183,0.0181,0.0181,0.0179,0.0197,0.0178,0.0192,0.0221,0.0217,0.022,0.0223,0.0209,0.021,0.0194,0.0194,0.0194,0,0.015,0.0168,0.0164,0.0178,0.0188,0.018,0.0198,0.02,0.0203,0.0214,0.0201,0.0207,0.0195,0.0212,0.0216,0.0206,0.0197,0.0209,0.0222,0.0225,0.0227,0.0212,0.0213,0.0196,0.0196,0.0196,0.0196,0,0.0174,0.0187,0.0195,0.0214,0.0223,0.0235,0.024,0.025,0.025,0.0254,0.0269,0.0253,0.026,0.0252,0.024,0.0255,0.0239,0.0227,0.0214,0.0234,0.0216,0.0217,0.0199,0.0199,0.0198,0.0197,0,0,0.0184,0.0208,0.0212,0.0231,0.0244,0.0257,0.0276,0.0299,0.0321,0.0315,0.0344,0.0332,0.0325,0.0321,0.0304,0.0296,0.0298,0.0272,0.0271,0.0262,0.0282,0.0282,0.0282,0.0289,0.029,0.029,0.026,0,0.0206,0.0241,0.0248,0.0286,0.0307,0.0312,0.0336,0.0353,0.0361,0.0385,0.0371,0.0387,0.0351,0.0356,0.0343,0.0316,0.0302,0.0307,0.026,0.0258,0.026,0.0284,0.0298,0.0274,0.026,0.026,0.026,0,0.0232,0.0253,0.0292,0.0334,0.0344,0.0366,0.041,0.0431,0.0455,0.0463,0.047,0.0459,0.0456,0.0417,0.0377,0.0383,0.0337,0.0305,0.0303,0.0291,0.026,0.0252,0.0275,0.0261,0.0261,0.0261,0.0261,0,0.0249,0.0289,0.0324,0.0336,0.0376,0.0401,0.0427,0.0457,0.049,0.0515,0.0541,0.0525,0.0529,0.0476,0.0408,0.0396,0.0358,0.0331,0.0284,0.0282,0.028,0.0278,0.0298,0.0298,0.0298,0.0298,0.0298,0,0.0275,0.0305,0.0336,0.0357,0.0411,0.0428,0.0488,0.0511,0.0553,0.0607,0.0585,0.0618,0.0545,0.0515,0.0437,0.0371,0.0379,0.0298,0.0282,0.0294,0.0294,0.0271,0.0268,0.0297,0.0297,0.0297,0.0298,0,0.0292,0.031,0.0355,0.0401,0.0422,0.0462,0.0533,0.0576,0.0609,0.0678,0.0693,0.0695,0.0663,0.0579,0.0495,0.0419,0.0345,0.0312,0.0328,0.0315,0.0261,0.026,0.0262,0.0262,0.0262,0.0262,0.0262,0,0.0305,0.0328,0.0387,0.042,0.0444,0.0504,0.0553,0.0603,0.0655,0.073,0.077,0.0763,0.077,0.0648,0.0525,0.04,0.0362,0.031,0.0289,0.0277,0.026,0.026,0.026,0.0294,0.0294,0.0294,0.0294,0,0.0329,0.0348,0.0384,0.0451,0.0504,0.0571,0.0643,0.0694,0.0764,0.0825,0.0894,0.0904,0.0815,0.071,0.0543,0.0447,0.0333,0.031,0.0304,0.0305,0.0305,0.0289,0.0288,0.0296,0.0295,0.0295,0.0295,0.0295,0.0347,0.0376,0.0423,0.0488,0.0551,0.0631,0.069,0.0768,0.0861,0.0951,0.0967,0.098,0.0868,0.0666,0.0523,0.0361,0.0369,0.0286,0.0286,0.0285,0.0299,0.03,0.0291,0.0291,0.029,0.029,0.029,0,0.0369,0.0402,0.0459,0.0535,0.0601,0.0637,0.0746,0.0805,0.0911,0.0986,0.104,0.0926,0.0826,0.0679,0.0465,0.0334,0.031,0.0264,0.0269,0.027,0.027,0.0282,0.0269,0.0269,0.0268,0.0268,0,0,0.0381,0.0428,0.0455,0.0558,0.0617,0.071,0.0772,0.0863,0.0934,0.0999,0.101,0.1024,0.0871,0.0701,0.0535,0.0407,0.0356,0.0365,0.0398,0.0426,0.0427,0.0303,0.0326,0,0,0,0,0]}],[{"header":{"parameterUnit":"m.s-1","parameterCategory":2,"la1":30.2991,"la2":30.254,"lo1":-89.0895,"lo2":-89.0444,"dy":0.0017,"dx":0.0017,"nx":28,"ny":28,"refTime":"2024-05-23T03:00:00:Z","depth":"4","parameterNumber":2,"parameterNumberName":"U-component_of_CURRENTS"},"data":[0,0,0,0,0,0,0,0,0,0,0,0,0,0,0,0,0,0,0,0,0,0,0,0,0,0,0,0,0,0,0,0,0,0,0,0,0,0,0,0,0,0,0,0,0,0,0,0,0,0,0,0,0,0,0,0,0,0,0.1064,0.1064,0,0.1082,0.1082,0.1082,0.1107,0.1108,0.1108,0.1109,0.1142,0.1142,0.1143,0,0,0,0,0,0,0,0,0,0,0,0,0,0.1059,0.1059,0.1064,0.1064,0.1065,0.1082,0.1082,0.1082,0.1107,0.1108,0.1108,0.1109,0.1142,0.1142,0.1143,0,0,0,0,0,0,0,0,0,0,0,0,0,0.1067,0.1059,0.1064,0.108,0.1082,0.1082,0.1082,0.1082,0.1107,0.1108,0.1108,0.1109,0.1142,0.1142,0.1143,0.1131,0,0,0.1145,0.1145,0,0,0,0,0,0,0,0,0.1066,0.1067,0.1077,0.1079,0.1081,0.1094,0.1093,0.11,0.1107,0.1096,0.1109,0.1109,0.1127,0.1129,0.1129,0.1133,0.1134,0.1145,0.1145,0.1145,0.1146,0,0,0,0,0,0,0,0.1066,0.1066,0.107,0.1078,0.108,0.1089,0.1091,0.1094,0.1107,0.1097,0.1099,0.1103,0.1128,0.1128,0.113,0.1135,0.1145,0.1145,0.1146,0.1146,0.1202,0.1203,0,0,0,0,0,0,0.1064,0.1065,0.107,0.1071,0.1076,0.1088,0.109,0.1088,0.1106,0.111,0.1102,0.1104,0.1127,0.1129,0.1131,0.1179,0.1145,0.1146,0.1146,0.1201,0.1202,0.1203,0,0,0,0,0,0,0.1064,0.1064,0.1069,0.107,0.1071,0.1088,0.1085,0.1088,0.1112,0.111,0.1114,0.1126,0.1128,0.1131,0.1156,0.1179,0.1146,0.1147,0.1199,0.1201,0.1203,0.1236,0,0,0,0,0,0,0.1064,0.1064,0.1075,0.1069,0.1071,0.1081,0.1085,0.1088,0.1112,0.1115,0.1131,0.1134,0.1129,0.1155,0.1157,0.1179,0.1147,0.1198,0.12,0.1202,0.1234,0.1239,0.1243,0,0,0,0,0,0.1063,0.1068,0.1075,0.1076,0.1081,0.1082,0.1084,0.1097,0.1113,0.1123,0.1139,0.1135,0.117,0.1156,0.1158,0.1181,0.1197,0.12,0.1202,0.1232,0.1238,0.1243,0,0,0,0,0,0,0.1074,0.1071,0.1078,0.1084,0.109,0.1087,0.1102,0.1111,0.1131,0.1145,0.1145,0.1148,0.1181,0.1177,0.1162,0.1205,0.1184,0.1187,0.1207,0.1212,0.1217,0.1223,0.1148,0,0,0,0,0,0.108,0.1085,0.1083,0.1093,0.1097,0.1106,0.1115,0.1124,0.1134,0.1145,0.1157,0.1173,0.1187,0.1198,0.1207,0.1226,0.1232,0.1244,0.1249,0.1253,0.126,0.1289,0.1297,0.1212,0.1212,0.1212,0,0,0.1089,0.1089,0.1094,0.1097,0.1105,0.1111,0.1114,0.1133,0.1146,0.1145,0.1179,0.1192,0.1197,0.1222,0.1236,0.1224,0.1281,0.1256,0.126,0.1265,0.1292,0.1301,0.1308,0.1213,0.1213,0.1213,0,0,0.1098,0.1109,0.1113,0.1119,0.1135,0.1135,0.1146,0.1157,0.1174,0.12,0.1208,0.1237,0.1255,0.1263,0.1269,0.1307,0.1307,0.1315,0.1342,0.137,0.1377,0.1383,0.14,0.1408,0.1315,0.1315,0.1315,0,0.1114,0.1111,0.1117,0.1123,0.1132,0.1148,0.1156,0.1172,0.1193,0.121,0.1219,0.1266,0.1274,0.1301,0.1319,0.1317,0.1332,0.1317,0.1376,0.1382,0.1388,0.1404,0.1412,0.1317,0.1317,0.1317,0.1317,0,0.1114,0.1125,0.1131,0.1141,0.1152,0.1164,0.1179,0.1205,0.1232,0.1246,0.1293,0.1308,0.1335,0.1346,0.1346,0.1393,0.139,0.1379,0.1359,0.1399,0.1413,0.1421,0.132,0.1319,0.1319,0.1318,0,0,0.1114,0.1128,0.1134,0.114,0.1164,0.1167,0.1202,0.1225,0.1252,0.1289,0.1326,0.1362,0.1382,0.1391,0.14,0.1428,0.1484,0.1429,0.143,0.1443,0.1548,0.1423,0.1419,0.1489,0.1491,0.1492,0.154,0,0.1116,0.1124,0.1134,0.1151,0.1153,0.1183,0.1207,0.1239,0.1274,0.1315,0.1352,0.1391,0.1395,0.1421,0.1451,0.1481,0.1507,0.1472,0.151,0.1511,0.1393,0.1424,0.1497,0.1546,0.1548,0.1549,0.155,0,0.1106,0.1113,0.1127,0.1147,0.1154,0.1174,0.1219,0.1244,0.1305,0.1337,0.1388,0.1419,0.1478,0.1473,0.1543,0.1525,0.1544,0.156,0.1562,0.1439,0.14,0.1499,0.1563,0.1562,0.1561,0.156,0.156,0,0.1083,0.1105,0.1115,0.1124,0.1153,0.1179,0.1205,0.1259,0.1288,0.1364,0.1401,0.1461,0.1509,0.1548,0.1589,0.1579,0.1657,0.1639,0.154,0.1532,0.1615,0.1608,0.1684,0.1684,0.1684,0.1684,0.1683,0,0.1061,0.1073,0.1111,0.1115,0.1139,0.1171,0.1211,0.1249,0.1312,0.1344,0.1417,0.1451,0.1537,0.1587,0.1608,0.1595,0.1672,0.1549,0.1536,0.1628,0.1621,0.162,0.1612,0.1685,0.1685,0.1685,0.1684,0,0.1028,0.1053,0.1066,0.1108,0.1127,0.1149,0.1211,0.1231,0.1305,0.1356,0.1387,0.1473,0.1529,0.1588,0.1654,0.1606,0.1613,0.1588,0.1687,0.1678,0.1465,0.1459,0.1477,0.1473,0.1469,0.1466,0.1464,0,0.1005,0.101,0.106,0.1071,0.1096,0.1136,0.1156,0.1224,0.1243,0.1349,0.1359,0.1451,0.1496,0.1489,0.1555,0.1573,0.1553,0.1542,0.1495,0.1459,0.1445,0.1444,0.1442,0.1459,0.1458,0.1457,0.1456,0,0.0964,0.0995,0.1008,0.1034,0.1059,0.1074,0.1112,0.1119,0.1192,0.1277,0.1296,0.1324,0.1376,0.1413,0.1438,0.1448,0.154,0.1506,0.1513,0.1469,0.1438,0.1427,0.1429,0.1444,0.1446,0.1447,0.1448,0,0.0942,0.0942,0.0967,0.0977,0.1007,0.0994,0.1023,0.1035,0.1064,0.1172,0.1178,0.1271,0.136,0.1349,0.1373,0.1369,0.1343,0.129,0.1308,0.1321,0.1246,0.1182,0.1101,0,0,0,0,0,0.091,0.0896,0.0902,0.0896,0.0921,0.0937,0.0978,0.1006,0.1083,0.1059,0.1112,0.1149,0.1177,0.1226,0.1191,0.1305,0.1353,0.1257,0.1302,0.1379,0.1393,0.1317,0,0,0,0,0,0,0.0885,0.0894,0.0877,0.0827,0.0813,0.0821,0.0847,0.0897,0.0883,0.0976,0.0999,0.107,0.1119,0.1189,0.1169,0.1183,0.1182,0.1315,0.1311,0.1371,0.1384,0.1395,0.1322,0,0,0,0,0]},{"header":{"parameterUnit":"m.s-1","parameterCategory":2,"la1":30.2991,"la2":30.254,"lo1":-89.0895,"lo2":-89.0444,"dy":0.0017,"dx":0.0017,"nx":28,"ny":28,"refTime":"2024-05-23T03:00:00:Z","depth":"4","parameterNumber":3,"parameterNumberName":"V-component_of_CURRENTS"},"data":[0,0,0,0,0,0,0,0,0,0,0,0,0,0,0,0,0,0,0,0,0,0,0,0,0,0,0,0,0,0,0,0,0,0,0,0,0,0,0,0,0,0,0,0,0,0,0,0,0,0,0,0,0,0,0,0,0,0,0.0071,0.0071,0,0.0069,0.0069,0.0069,0.0065,0.0065,0.0065,0.0065,0.0058,0.0058,0.0058,0,0,0,0,0,0,0,0,0,0,0,0,0,0.0063,0.0063,0.0071,0.0071,0.0071,0.0069,0.0069,0.0069,0.0065,0.0065,0.0065,0.0065,0.0058,0.0058,0.0058,0,0,0,0,0,0,0,0,0,0,0,0,0,0.0064,0.0063,0.0071,0.0069,0.0069,0.0069,0.0069,0.0069,0.0065,0.0065,0.0065,0.0065,0.0058,0.0058,0.0057,0.0058,0,0,0.0057,0.0057,0,0,0,0,0,0,0,0,0.0064,0.0064,0.0069,0.0069,0.0069,0.0067,0.0063,0.0065,0.0065,0.0067,0.0065,0.0065,0.006,0.006,0.006,0.0058,0.0057,0.0057,0.0057,0.0057,0.0057,0,0,0,0,0,0,0,0.0064,0.0064,0.007,0.0069,0.0069,0.0065,0.0065,0.0063,0.0064,0.0067,0.0066,0.0066,0.006,0.006,0.006,0.0057,0.0057,0.0057,0.0057,0.0056,0.0061,0.0062,0,0,0,0,0,0,0.0065,0.0064,0.007,0.007,0.0066,0.0065,0.0065,0.0068,0.0064,0.0064,0.0066,0.0066,0.0061,0.006,0.0059,0.0075,0.0057,0.0056,0.0056,0.0061,0.0062,0.0062,0,0,0,0,0,0,0.0064,0.0065,0.007,0.0067,0.0067,0.0065,0.0068,0.0068,0.007,0.0064,0.0063,0.0069,0.006,0.006,0.0064,0.0074,0.0056,0.0056,0.0061,0.0061,0.0062,0.0096,0,0,0,0,0,0,0.0064,0.0065,0.0069,0.0067,0.0067,0.0075,0.0068,0.0068,0.007,0.0069,0.0066,0.0065,0.006,0.0064,0.0063,0.0073,0.0056,0.0061,0.0061,0.0062,0.0094,0.0097,0.01,0,0,0,0,0,0.0064,0.0069,0.0069,0.007,0.0072,0.0075,0.0075,0.0073,0.007,0.0074,0.0072,0.0065,0.0066,0.0064,0.0063,0.0073,0.006,0.0061,0.0061,0.0093,0.0097,0.01,0,0,0,0,0,0,0.0067,0.0069,0.0069,0.0075,0.0077,0.0075,0.0078,0.0076,0.0077,0.0076,0.007,0.0069,0.0076,0.0068,0.0066,0.0075,0.0061,0.0062,0.0086,0.0089,0.0092,0.0098,0.0056,0,0,0,0,0,0.007,0.0075,0.0075,0.0081,0.0082,0.0081,0.0082,0.0081,0.008,0.0081,0.0079,0.0076,0.0077,0.0078,0.0077,0.0083,0.0073,0.0087,0.009,0.0092,0.0096,0.009,0.0093,0.0064,0.0064,0.0064,0,0,0.0072,0.0074,0.0077,0.0082,0.0083,0.0092,0.0081,0.0085,0.0094,0.008,0.0092,0.0086,0.0081,0.0089,0.0091,0.0085,0.0095,0.0093,0.0095,0.0098,0.0091,0.0094,0.0097,0.0064,0.0064,0.0064,0,0,0.0081,0.0082,0.009,0.0094,0.0098,0.0099,0.0102,0.0103,0.0105,0.0114,0.0107,0.0109,0.0109,0.011,0.011,0.0125,0.011,0.0122,0.0143,0.0137,0.0139,0.0142,0.0133,0.0134,0.0124,0.0124,0.0124,0,0.0084,0.0096,0.0093,0.0104,0.0111,0.0105,0.0119,0.012,0.0123,0.0131,0.0122,0.0128,0.0121,0.0135,0.0139,0.0133,0.0124,0.0132,0.0141,0.0143,0.0145,0.0135,0.0136,0.0126,0.0125,0.0125,0.0125,0,0.0101,0.0111,0.0117,0.013,0.0138,0.0147,0.0151,0.0159,0.016,0.0164,0.0176,0.0165,0.017,0.0167,0.0158,0.0168,0.0156,0.0146,0.0135,0.015,0.0138,0.0139,0.0128,0.0127,0.0127,0.0127,0,0,0.0107,0.0125,0.0128,0.0143,0.0154,0.0164,0.018,0.0198,0.0214,0.0211,0.0233,0.0227,0.0219,0.0217,0.0204,0.0197,0.0198,0.0177,0.0176,0.0172,0.0182,0.0175,0.0174,0.0188,0.0188,0.0188,0.017,0,0.0124,0.0149,0.0155,0.0185,0.02,0.0206,0.0226,0.024,0.0246,0.0263,0.0254,0.0267,0.0239,0.0243,0.0231,0.021,0.0199,0.0203,0.0165,0.0164,0.0159,0.0175,0.0189,0.017,0.017,0.017,0.017,0,0.0141,0.0157,0.0187,0.022,0.0228,0.0246,0.0281,0.0298,0.0316,0.0322,0.0326,0.0316,0.0314,0.0284,0.0252,0.0255,0.0221,0.0198,0.0196,0.0179,0.0158,0.0151,0.017,0.017,0.017,0.017,0.017,0,0.0151,0.0182,0.0209,0.0219,0.0251,0.0272,0.0294,0.0318,0.0344,0.0361,0.0381,0.0365,0.0369,0.0325,0.0275,0.0264,0.0235,0.0215,0.0174,0.0173,0.0169,0.0167,0.0187,0.0187,0.0187,0.0187,0.0187,0,0.0167,0.019,0.0218,0.0233,0.0276,0.0292,0.0339,0.0357,0.039,0.043,0.0413,0.0434,0.0379,0.0355,0.0295,0.0241,0.025,0.0183,0.0171,0.0183,0.0183,0.0169,0.0167,0.0187,0.0187,0.0187,0.0187,0,0.0175,0.019,0.0226,0.0264,0.0282,0.0315,0.0375,0.0408,0.0434,0.0485,0.0496,0.0494,0.0468,0.0406,0.0341,0.0278,0.0219,0.0194,0.0218,0.0207,0.0153,0.0153,0.0148,0.0148,0.0148,0.0147,0.0147,0,0.0181,0.0198,0.0249,0.0276,0.0296,0.0347,0.0387,0.0429,0.0466,0.0523,0.0549,0.0545,0.0532,0.0441,0.0365,0.0256,0.023,0.0188,0.0161,0.0162,0.0151,0.0151,0.0151,0.0147,0.0147,0.0147,0.0147,0,0.0194,0.0211,0.0241,0.0295,0.034,0.0395,0.0453,0.0484,0.054,0.0564,0.0597,0.0559,0.0532,0.045,0.037,0.0286,0.0209,0.0184,0.0184,0.0158,0.016,0.0149,0.015,0.0146,0.0146,0.0146,0.0146,0,0.0205,0.0226,0.0266,0.0316,0.0373,0.043,0.0461,0.0512,0.0554,0.0608,0.0618,0.0592,0.0578,0.0467,0.0394,0.0314,0.028,0.0226,0.0223,0.0223,0.0243,0.0256,0.0268,0,0,0,0,0,0.0216,0.0241,0.0286,0.0343,0.0398,0.0433,0.0502,0.0529,0.058,0.0604,0.0612,0.0588,0.0499,0.0466,0.0386,0.0372,0.0257,0.0271,0.019,0.014,0.0141,0.0151,0,0,0,0,0,0,0.0224,0.0263,0.0284,0.0356,0.0396,0.0463,0.0507,0.0542,0.0555,0.0591,0.0549,0.0542,0.0458,0.0545,0.0377,0.0357,0.0286,0.0238,0.0235,0.014,0.0141,0.0141,0.0152,0,0,0,0,0]}]]